Time,TemperatureF,DewpointF,PressureIn,WindDirection,WindDirectionDegrees,WindSpeedMPH,WindSpeedGustMPH,Humidity,HourlyPrecipIn,Conditions,Clouds,dailyrainin,SoftwareType,DateUTC
2013-02-17 00:00:00,35.2,19.4,29.93,SW,231,4.5,6.3,52,0.00,,OVC075,0.00,VWS V14.01,2013-02-17 08:00:00,
2013-02-17 00:05:00,35.4,19.6,29.93,WSW,240,6.3,7.6,52,0.00,,BKN170,0.00,VWS V14.01,2013-02-17 08:05:00,
2013-02-17 00:10:00,35.6,19.3,29.93,WSW,249,6.3,6.3,51,0.00,,BKN170,0.00,VWS V14.01,2013-02-17 08:10:00,
2013-02-17 00:15:00,35.8,19.4,29.93,WSW,239,7.6,8.1,51,0.00,,BKN170,0.00,VWS V14.01,2013-02-17 08:15:00,
2013-02-17 00:20:00,36.0,19.1,29.93,WSW,237,4.9,4.9,50,0.00,,BKN170,0.00,VWS V14.01,2013-02-17 08:20:00,
2013-02-17 00:25:00,36.0,19.1,29.93,WSW,251,8.3,8.7,50,0.00,,BKN170,0.00,VWS V14.01,2013-02-17 08:25:00,
2013-02-17 00:30:00,35.8,19.0,29.93,WSW,241,7.6,7.6,50,0.00,,BKN170,0.00,VWS V14.01,2013-02-17 08:30:00,
2013-02-17 00:35:00,35.4,18.6,29.93,WSW,249,8.3,8.3,50,0.00,,BKN170,0.00,VWS V14.01,2013-02-17 08:35:00,
2013-02-17 00:40:00,35.4,18.6,29.93,West,275,5.4,5.4,50,0.00,,BKN170,0.00,VWS V14.01,2013-02-17 08:40:00,
2013-02-17 00:45:00,35.1,18.8,29.93,SW,227,8.1,10.1,51,0.00,,BKN170,0.00,VWS V14.01,2013-02-17 08:45:00,
2013-02-17 00:50:00,34.5,18.3,29.93,SW,231,8.3,8.3,51,0.00,,BKN170,0.00,VWS V14.01,2013-02-17 08:50:00,
2013-02-17 00:55:00,34.3,18.1,29.93,SW,229,2.7,2.7,51,0.00,,BKN170,0.00,VWS V14.01,2013-02-17 08:55:00,
2013-02-17 01:00:00,33.8,18.0,29.93,SW,216,3.6,3.6,52,0.00,,BKN170,0.00,VWS V14.01,2013-02-17 09:00:00,
2013-02-17 01:05:00,33.8,18.0,29.93,SW,233,2.2,2.7,52,0.00,,BKN100,0.00,VWS V14.01,2013-02-17 09:05:00,
2013-02-17 01:10:00,33.6,18.3,29.93,West,259,3.1,3.1,53,0.00,,BKN100,0.00,VWS V14.01,2013-02-17 09:10:00,
2013-02-17 01:15:00,33.4,18.2,29.93,SW,225,2.7,2.7,53,0.00,,BKN100,0.00,VWS V14.01,2013-02-17 09:15:00,
2013-02-17 01:20:00,33.4,18.6,29.93,SW,227,2.7,2.7,54,0.00,,BKN100,0.00,VWS V14.01,2013-02-17 09:20:00,
2013-02-17 01:25:00,33.4,18.6,29.93,WSW,248,3.1,3.1,54,0.00,,BKN100,0.00,VWS V14.01,2013-02-17 09:25:00,
2013-02-17 01:30:00,33.3,18.4,29.93,WSW,239,2.7,2.7,54,0.00,,BKN100,0.00,VWS V14.01,2013-02-17 09:30:00,
2013-02-17 01:35:00,33.3,18.4,29.93,WSW,246,2.2,2.7,54,0.00,,BKN100,0.00,VWS V14.01,2013-02-17 09:35:00,
2013-02-17 01:40:00,33.4,19.0,29.93,WSW,241,0.0,2.2,55,0.00,,BKN100,0.00,VWS V14.01,2013-02-17 09:40:00,
2013-02-17 01:45:00,33.6,19.2,29.93,WSW,240,2.7,2.7,55,0.00,,BKN100,0.00,VWS V14.01,2013-02-17 09:45:00,
2013-02-17 01:50:00,33.6,19.2,29.93,SW,231,3.1,3.1,55,0.00,,BKN100,0.00,VWS V14.01,2013-02-17 09:50:00,
2013-02-17 01:55:00,33.6,19.2,29.93,SW,235,0.0,0.0,55,0.00,,BKN100,0.00,VWS V14.01,2013-02-17 09:55:00,
2013-02-17 02:00:00,33.4,18.6,29.93,SW,235,0.0,0.0,54,0.00,,BKN100,0.00,VWS V14.01,2013-02-17 10:00:00,
2013-02-17 02:05:00,33.1,18.3,29.93,SW,235,0.0,0.0,54,0.00,,OVC110,0.00,VWS V14.01,2013-02-17 10:05:00,
2013-02-17 02:10:00,33.1,18.7,29.96,SW,235,0.0,0.0,55,0.00,,OVC110,0.00,VWS V14.01,2013-02-17 10:10:00,
2013-02-17 02:15:00,33.3,18.9,29.96,SW,235,0.0,0.0,55,0.00,,OVC110,0.00,VWS V14.01,2013-02-17 10:15:00,
2013-02-17 02:20:00,33.3,18.9,29.96,SW,235,0.0,0.0,55,0.00,,OVC110,0.00,VWS V14.01,2013-02-17 10:20:00,
2013-02-17 02:25:00,33.1,18.7,29.96,SW,235,0.0,0.0,55,0.00,,OVC110,0.00,VWS V14.01,2013-02-17 10:25:00,
2013-02-17 02:30:00,32.7,18.4,29.96,SW,235,0.0,0.0,55,0.00,,OVC110,0.00,VWS V14.01,2013-02-17 10:30:00,
2013-02-17 02:35:00,32.2,17.8,29.96,SW,235,0.0,0.0,55,0.00,,OVC110,0.00,VWS V14.01,2013-02-17 10:35:00,
2013-02-17 02:40:00,31.5,17.6,29.93,SW,236,0.0,0.0,56,0.00,,OVC110,0.00,VWS V14.01,2013-02-17 10:40:00,
2013-02-17 02:45:00,31.1,17.7,29.93,SW,236,0.0,0.0,57,0.00,,OVC110,0.00,VWS V14.01,2013-02-17 10:45:00,
2013-02-17 02:50:00,31.3,18.2,29.93,SW,236,0.0,0.0,58,0.00,,OVC110,0.00,VWS V14.01,2013-02-17 10:50:00,
2013-02-17 02:55:00,31.3,18.2,29.93,SW,236,0.0,0.0,58,0.00,,OVC110,0.00,VWS V14.01,2013-02-17 10:55:00,
2013-02-17 03:00:00,31.5,18.8,29.93,SW,236,0.0,0.0,59,0.00,,OVC110,0.00,VWS V14.01,2013-02-17 11:00:00,
2013-02-17 03:05:00,31.8,19.1,29.93,SW,236,0.0,0.0,59,0.00,,OVC110,0.00,VWS V14.01,2013-02-17 11:05:00,
2013-02-17 03:10:00,32.2,19.9,29.96,SW,236,0.0,0.0,60,0.00,,OVC110,0.00,VWS V14.01,2013-02-17 11:10:00,
2013-02-17 03:15:00,32.9,20.5,29.96,SW,232,0.0,0.0,60,0.00,,OVC110,0.00,VWS V14.01,2013-02-17 11:15:00,
2013-02-17 03:20:00,33.6,20.4,29.96,WNW,291,2.7,4.0,58,0.00,,OVC110,0.00,VWS V14.01,2013-02-17 11:20:00,
2013-02-17 03:25:00,34.0,18.7,29.96,NW,324,0.0,0.0,53,0.00,,,0.00,VWS V14.01,2013-02-17 11:25:00,
2013-02-17 03:30:00,34.3,18.5,29.96,West,269,3.1,3.6,52,0.00,,,0.00,VWS V14.01,2013-02-17 11:30:00,
2013-02-17 03:35:00,34.3,19.0,29.96,West,264,5.8,5.8,53,0.00,,,0.00,VWS V14.01,2013-02-17 11:35:00,
2013-02-17 03:40:00,34.2,19.7,29.96,West,261,5.4,5.4,55,0.00,,,0.00,VWS V14.01,2013-02-17 11:40:00,
2013-02-17 03:45:00,34.0,21.2,29.96,NW,312,2.7,2.7,59,0.00,,,0.00,VWS V14.01,2013-02-17 11:45:00,
2013-02-17 03:50:00,33.8,21.4,29.96,West,271,4.0,4.0,60,0.00,,,0.00,VWS V14.01,2013-02-17 11:50:00,
2013-02-17 03:55:00,33.8,21.8,29.96,West,268,4.0,4.0,61,0.00,,,0.00,VWS V14.01,2013-02-17 11:55:00,
2013-02-17 04:00:00,33.6,22.4,29.96,SW,224,4.0,4.9,63,0.00,,,0.00,VWS V14.01,2013-02-17 12:00:00,
2013-02-17 04:05:00,33.6,23.5,29.96,SW,215,5.4,5.4,66,0.00,,,0.00,VWS V14.01,2013-02-17 12:05:00,
2013-02-17 04:10:00,33.4,25.1,29.96,SW,231,3.6,5.8,71,0.00,,,0.00,VWS V14.01,2013-02-17 12:10:00,
2013-02-17 04:15:00,33.3,25.2,29.96,SW,226,3.6,5.4,72,0.00,,,0.00,VWS V14.01,2013-02-17 12:15:00,
2013-02-17 04:20:00,33.3,25.9,29.96,SSW,208,5.4,5.4,74,0.00,,,0.00,VWS V14.01,2013-02-17 12:20:00,
2013-02-17 04:25:00,33.1,26.4,29.96,South,191,0.0,2.2,76,0.00,,,0.00,VWS V14.01,2013-02-17 12:25:00,
2013-02-17 04:30:00,33.1,26.0,29.96,SSW,192,0.0,0.0,75,0.00,,,0.00,VWS V14.01,2013-02-17 12:30:00,
2013-02-17 04:35:00,32.9,25.9,29.96,South,191,0.0,0.0,75,0.00,,,0.00,VWS V14.01,2013-02-17 12:35:00,
2013-02-17 04:40:00,32.7,25.7,29.96,South,191,0.0,0.0,75,0.00,,,0.00,VWS V14.01,2013-02-17 12:40:00,
2013-02-17 04:45:00,32.5,25.5,29.96,ENE,65,0.0,2.7,75,0.00,,,0.00,VWS V14.01,2013-02-17 12:45:00,
2013-02-17 04:50:00,32.4,25.0,29.96,ENE,65,0.0,0.0,74,0.00,,,0.00,VWS V14.01,2013-02-17 12:50:00,
2013-02-17 04:55:00,32.2,24.8,29.96,ENE,65,0.0,0.0,74,0.00,,,0.00,VWS V14.01,2013-02-17 12:55:00,
2013-02-17 05:00:00,31.8,24.5,29.96,ENE,65,0.0,0.0,74,0.00,,,0.00,VWS V14.01,2013-02-17 13:00:00,
2013-02-17 05:05:00,31.3,24.0,29.96,ENE,65,0.0,0.0,74,0.00,,BKN110,0.00,VWS V14.01,2013-02-17 13:05:00,
2013-02-17 05:10:00,31.1,23.8,29.96,ENE,65,0.0,0.0,74,0.00,,BKN110,0.00,VWS V14.01,2013-02-17 13:10:00,
2013-02-17 05:15:00,30.7,23.8,29.96,ENE,65,0.0,0.0,75,0.00,,BKN110,0.00,VWS V14.01,2013-02-17 13:15:00,
2013-02-17 05:20:00,30.4,23.1,29.96,ENE,65,0.0,0.0,74,0.00,,BKN110,0.00,VWS V14.01,2013-02-17 13:20:00,
2013-02-17 05:25:00,29.5,21.9,29.96,ENE,64,0.0,0.0,73,0.00,,BKN110,0.00,VWS V14.01,2013-02-17 13:25:00,
2013-02-17 05:30:00,29.5,22.9,29.96,North,1,0.0,0.0,76,0.00,,BKN110,0.00,VWS V14.01,2013-02-17 13:30:00,
2013-02-17 05:35:00,29.1,22.5,29.96,SW,235,0.0,0.0,76,0.00,,BKN110,0.00,VWS V14.01,2013-02-17 13:35:00,
2013-02-17 05:40:00,28.6,22.0,29.96,SW,235,0.0,0.0,76,0.00,,BKN110,0.00,VWS V14.01,2013-02-17 13:40:00,
2013-02-17 05:45:00,28.6,22.0,29.96,SW,235,0.0,0.0,76,0.00,,BKN110,0.00,VWS V14.01,2013-02-17 13:45:00,
2013-02-17 05:50:00,28.2,21.6,29.96,SW,235,0.0,0.0,76,0.00,,BKN110,0.00,VWS V14.01,2013-02-17 13:50:00,
2013-02-17 05:55:00,27.7,21.1,29.96,SW,235,0.0,0.0,76,0.00,,BKN110,0.00,VWS V14.01,2013-02-17 13:55:00,
2013-02-17 06:00:00,27.5,20.9,29.96,SW,235,0.0,0.0,76,0.00,,BKN110,0.00,VWS V14.01,2013-02-17 14:00:00,
2013-02-17 06:05:00,27.5,21.2,29.96,SW,235,0.0,0.0,77,0.00,,BKN120,0.00,VWS V14.01,2013-02-17 14:05:00,
2013-02-17 06:10:00,27.3,21.1,29.99,SW,235,0.0,0.0,77,0.00,,BKN120,0.00,VWS V14.01,2013-02-17 14:10:00,
2013-02-17 06:15:00,26.8,20.2,29.99,SW,235,0.0,0.0,76,0.00,,BKN120,0.00,VWS V14.01,2013-02-17 14:15:00,
2013-02-17 06:20:00,26.1,19.5,29.99,SW,235,0.0,0.0,76,0.00,,BKN120,0.00,VWS V14.01,2013-02-17 14:20:00,
2013-02-17 06:25:00,26.2,20.0,29.99,SW,235,0.0,0.0,77,0.00,,BKN120,0.00,VWS V14.01,2013-02-17 14:25:00,
2013-02-17 06:30:00,25.9,19.7,29.99,SW,235,0.0,0.0,77,0.00,,BKN120,0.00,VWS V14.01,2013-02-17 14:30:00,
2013-02-17 06:35:00,25.7,19.5,29.99,SW,235,0.0,0.0,77,0.00,,BKN120,0.00,VWS V14.01,2013-02-17 14:35:00,
2013-02-17 06:40:00,25.9,20.0,29.99,SW,235,0.0,0.0,78,0.00,,BKN120,0.00,VWS V14.01,2013-02-17 14:40:00,
2013-02-17 06:44:00,25.7,19.5,29.99,SW,235,0.0,0.0,77,0.00,,BKN120,0.00,VWS V14.01,2013-02-17 14:44:00,
2013-02-17 06:49:00,25.5,19.6,29.99,SW,235,0.0,0.0,78,0.00,,BKN120,0.00,VWS V14.01,2013-02-17 14:49:00,
2013-02-17 06:54:00,25.3,19.1,29.99,SW,235,0.0,0.0,77,0.00,,BKN120,0.00,VWS V14.01,2013-02-17 14:54:00,
2013-02-17 06:59:00,24.8,18.6,29.99,SW,235,0.0,0.0,77,0.00,,FEW070,0.00,VWS V14.01,2013-02-17 14:59:00,
2013-02-17 07:04:00,24.6,18.5,29.99,SW,235,0.0,0.0,77,0.00,,FEW070,0.00,VWS V14.01,2013-02-17 15:04:00,
2013-02-17 07:09:00,24.4,18.6,29.99,SW,235,0.0,0.0,78,0.00,,FEW070,0.00,VWS V14.01,2013-02-17 15:09:00,
2013-02-17 07:14:00,24.4,18.6,29.99,SW,235,0.0,0.0,78,0.00,,FEW070,0.00,VWS V14.01,2013-02-17 15:14:00,
2013-02-17 07:19:00,24.4,18.6,29.99,SW,235,0.0,0.0,78,0.00,,FEW070,0.00,VWS V14.01,2013-02-17 15:19:00,
2013-02-17 07:24:00,24.6,18.8,29.99,SW,235,0.0,0.0,78,0.00,,FEW070,0.00,VWS V14.01,2013-02-17 15:24:00,
2013-02-17 07:29:00,25.2,19.6,29.99,SW,235,0.0,0.0,79,0.00,,FEW070,0.00,VWS V14.01,2013-02-17 15:29:00,
2013-02-17 07:34:00,25.7,20.1,29.99,SW,235,0.0,0.0,79,0.00,,FEW070,0.00,VWS V14.01,2013-02-17 15:34:00,
2013-02-17 07:39:00,26.6,21.3,29.99,SW,235,0.0,0.0,80,0.00,,FEW070,0.00,VWS V14.01,2013-02-17 15:39:00,
2013-02-17 07:44:00,27.1,21.8,29.99,SW,235,0.0,0.0,80,0.00,,FEW070,0.00,VWS V14.01,2013-02-17 15:44:00,
2013-02-17 07:49:00,27.5,22.1,29.99,SW,235,0.0,0.0,80,0.00,,FEW070,0.00,VWS V14.01,2013-02-17 15:49:00,
2013-02-17 07:54:00,28.6,23.2,29.99,SW,235,0.0,0.0,80,0.00,,FEW070,0.00,VWS V14.01,2013-02-17 15:54:00,
2013-02-17 07:59:00,29.3,23.9,29.99,SW,235,0.0,0.0,80,0.00,,FEW070,0.00,VWS V14.01,2013-02-17 15:59:00,
2013-02-17 08:04:00,29.8,24.4,29.99,SW,235,0.0,0.0,80,0.00,,SCT070,0.00,VWS V14.01,2013-02-17 16:04:00,
2013-02-17 08:09:00,30.7,25.6,29.99,WSW,243,2.7,2.7,81,0.00,,SCT070,0.00,VWS V14.01,2013-02-17 16:09:00,
2013-02-17 08:14:00,31.5,26.3,29.99,SW,233,4.0,4.0,81,0.00,,SCT070,0.00,VWS V14.01,2013-02-17 16:14:00,
2013-02-17 08:19:00,32.2,27.0,29.99,SW,226,3.6,4.9,81,0.00,,SCT070,0.00,VWS V14.01,2013-02-17 16:19:00,
2013-02-17 08:24:00,33.1,27.9,29.99,SW,226,3.1,4.9,81,0.00,,SCT070,0.00,VWS V14.01,2013-02-17 16:24:00,
2013-02-17 08:29:00,33.6,28.1,29.99,SW,221,4.0,4.9,80,0.00,,SCT070,0.00,VWS V14.01,2013-02-17 16:29:00,
2013-02-17 08:34:00,34.3,27.6,29.99,SW,220,3.1,3.1,76,0.00,,SCT070,0.00,VWS V14.01,2013-02-17 16:34:00,
2013-02-17 08:39:00,34.9,26.8,29.99,SW,233,3.6,4.0,72,0.00,,SCT070,0.00,VWS V14.01,2013-02-17 16:39:00,
2013-02-17 08:44:00,35.2,22.0,29.99,SW,221,5.8,5.8,58,0.00,,SCT070,0.00,VWS V14.01,2013-02-17 16:44:00,
2013-02-17 08:49:00,35.8,22.0,29.99,WSW,246,5.4,5.4,57,0.00,,SCT070,0.00,VWS V14.01,2013-02-17 16:49:00,
2013-02-17 08:54:00,36.0,22.6,29.99,West,268,2.2,4.0,58,0.00,,SCT070,0.00,VWS V14.01,2013-02-17 16:54:00,
2013-02-17 08:59:00,36.3,22.1,29.99,West,264,7.6,8.7,56,0.00,,SCT070,0.00,VWS V14.01,2013-02-17 16:59:00,
2013-02-17 09:04:00,36.5,20.6,29.99,West,275,2.7,5.8,52,0.00,,SCT060,0.00,VWS V14.01,2013-02-17 17:04:00,
2013-02-17 09:09:00,36.7,20.7,30.02,West,270,3.1,4.0,52,0.00,,SCT060,0.00,VWS V14.01,2013-02-17 17:09:00,
2013-02-17 09:14:00,37.2,21.2,30.02,WSW,250,5.8,5.8,52,0.00,,SCT060,0.00,VWS V14.01,2013-02-17 17:14:00,
2013-02-17 09:19:00,37.6,20.6,30.02,WSW,256,5.4,5.8,50,0.00,,SCT060,0.00,VWS V14.01,2013-02-17 17:19:00,
2013-02-17 09:24:00,38.1,20.2,30.02,WSW,256,3.1,6.3,48,0.00,,SCT060,0.00,VWS V14.01,2013-02-17 17:24:00,
2013-02-17 09:29:00,38.5,20.0,30.02,SSW,211,4.0,5.8,47,0.00,,SCT060,0.00,VWS V14.01,2013-02-17 17:29:00,
2013-02-17 09:34:00,38.8,19.8,30.02,SW,236,6.3,6.3,46,0.00,,SCT060,0.00,VWS V14.01,2013-02-17 17:34:00,
2013-02-17 09:39:00,39.2,19.1,30.02,West,266,5.4,5.8,44,0.00,,SCT060,0.00,VWS V14.01,2013-02-17 17:39:00,
2013-02-17 09:44:00,39.4,18.8,30.02,WSW,237,5.4,8.1,43,0.00,,SCT060,0.00,VWS V14.01,2013-02-17 17:44:00,
2013-02-17 09:49:00,39.7,19.1,30.02,WSW,237,4.0,4.5,43,0.00,,SCT060,0.00,VWS V14.01,2013-02-17 17:49:00,
2013-02-17 09:54:00,40.1,19.4,30.02,West,261,6.3,7.6,43,0.00,,SCT060,0.00,VWS V14.01,2013-02-17 17:54:00,
2013-02-17 09:59:00,40.3,19.0,30.02,WSW,240,7.6,8.1,42,0.00,,SCT060,0.00,VWS V14.01,2013-02-17 17:59:00,
2013-02-17 10:04:00,40.5,19.2,30.02,WSW,257,8.3,8.7,42,0.00,,SCT060,0.00,VWS V14.01,2013-02-17 18:04:00,
2013-02-17 10:09:00,40.8,20.1,30.02,SW,234,7.2,7.2,43,0.00,,SCT060,0.00,VWS V14.01,2013-02-17 18:09:00,
2013-02-17 10:14:00,41.2,19.9,30.02,WSW,254,8.3,8.3,42,0.00,,SCT060,0.00,VWS V14.01,2013-02-17 18:14:00,
2013-02-17 10:19:00,41.4,19.5,30.02,WSW,244,6.3,6.3,41,0.00,,SCT060,0.00,VWS V14.01,2013-02-17 18:19:00,
2013-02-17 10:24:00,41.5,20.2,30.02,SW,232,7.6,8.1,42,0.00,,SCT060,0.00,VWS V14.01,2013-02-17 18:24:00,
2013-02-17 10:29:00,42.1,20.1,30.02,West,272,5.8,5.8,41,0.00,,SCT060,0.00,VWS V14.01,2013-02-17 18:29:00,
2013-02-17 10:34:00,42.3,20.8,30.02,WSW,238,5.4,6.3,42,0.00,,SCT060,0.00,VWS V14.01,2013-02-17 18:34:00,
2013-02-17 10:39:00,42.8,20.2,30.02,West,261,7.2,7.2,40,0.00,,SCT060,0.00,VWS V14.01,2013-02-17 18:39:00,
2013-02-17 10:44:00,43.0,20.9,30.02,SW,232,5.4,6.3,41,0.00,,SCT060,0.00,VWS V14.01,2013-02-17 18:44:00,
2013-02-17 10:49:00,43.5,20.8,30.02,WSW,243,4.0,5.4,40,0.00,,SCT060,0.00,VWS V14.01,2013-02-17 18:49:00,
2013-02-17 10:54:00,43.7,20.4,30.02,West,259,3.1,3.1,39,0.00,,SCT060,0.00,VWS V14.01,2013-02-17 18:54:00,
2013-02-17 10:59:00,44.1,20.7,30.02,WSW,254,7.2,7.2,39,0.00,,SCT060,0.00,VWS V14.01,2013-02-17 18:59:00,
2013-02-17 11:04:00,44.1,20.7,30.02,SW,225,8.1,8.1,39,0.00,,SCT060,0.00,VWS V14.01,2013-02-17 19:04:00,
2013-02-17 11:09:00,44.1,20.7,30.02,WSW,243,8.3,8.3,39,0.00,,SCT060,0.00,VWS V14.01,2013-02-17 19:09:00,
2013-02-17 11:14:00,44.2,20.9,30.02,SW,233,6.3,6.3,39,0.00,,SCT060,0.00,VWS V14.01,2013-02-17 19:14:00,
2013-02-17 11:19:00,44.6,20.6,30.02,SW,230,8.7,8.7,38,0.00,,SCT060,0.00,VWS V14.01,2013-02-17 19:19:00,
2013-02-17 11:24:00,44.8,21.4,30.02,SW,226,8.1,8.1,39,0.00,,SCT060,0.00,VWS V14.01,2013-02-17 19:24:00,
2013-02-17 11:29:00,44.8,20.7,30.02,SW,221,8.1,8.1,38,0.00,,SCT060,0.00,VWS V14.01,2013-02-17 19:29:00,
2013-02-17 11:34:00,45.1,21.1,30.02,West,268,3.6,7.6,38,0.00,,SCT060,0.00,VWS V14.01,2013-02-17 19:34:00,
2013-02-17 11:39:00,45.3,21.2,30.02,West,265,5.8,6.3,38,0.00,,SCT060,0.00,VWS V14.01,2013-02-17 19:39:00,
2013-02-17 11:44:00,45.5,21.4,30.02,West,269,8.1,8.7,38,0.00,,SCT060,0.00,VWS V14.01,2013-02-17 19:44:00,
2013-02-17 11:49:00,45.9,21.1,30.02,West,264,5.4,8.1,37,0.00,,SCT060,0.00,VWS V14.01,2013-02-17 19:49:00,
2013-02-17 11:54:00,45.9,21.7,30.02,West,270,8.1,8.3,38,0.00,,SCT060,0.00,VWS V14.01,2013-02-17 19:54:00,
2013-02-17 11:59:00,46.2,21.4,30.02,West,267,8.1,8.1,37,0.00,,SCT060,0.00,VWS V14.01,2013-02-17 19:59:00,
2013-02-17 12:04:00,46.2,22.0,30.02,West,270,5.8,5.8,38,0.00,,SCT060,0.00,VWS V14.01,2013-02-17 20:04:00,
2013-02-17 12:09:00,46.4,21.6,30.02,SW,225,6.3,8.7,37,0.00,,SCT060,0.00,VWS V14.01,2013-02-17 20:09:00,
2013-02-17 12:14:00,46.9,22.7,30.02,WSW,257,7.6,10.1,38,0.00,,SCT060,0.00,VWS V14.01,2013-02-17 20:14:00,
2013-02-17 12:19:00,47.1,21.6,30.02,WSW,252,8.1,8.3,36,0.00,,SCT060,0.00,VWS V14.01,2013-02-17 20:19:00,
2013-02-17 12:24:00,46.4,16.7,30.02,West,271,7.6,7.6,30,0.00,,SCT060,0.00,VWS V14.01,2013-02-17 20:24:00,
2013-02-17 12:29:00,46.2,16.5,30.02,NNW,346,5.8,7.6,30,0.00,,SCT060,0.00,VWS V14.01,2013-02-17 20:29:00,
2013-02-17 12:34:00,46.4,16.7,30.02,NW,322,5.4,5.4,30,0.00,,SCT060,0.00,VWS V14.01,2013-02-17 20:34:00,
2013-02-17 12:39:00,46.9,17.1,30.02,West,268,5.8,5.8,30,0.00,,SCT060,0.00,VWS V14.01,2013-02-17 20:39:00,
2013-02-17 12:44:00,47.5,16.8,30.02,West,266,8.7,11.9,29,0.00,,SCT060,0.00,VWS V14.01,2013-02-17 20:44:00,
2013-02-17 12:49:00,47.3,16.7,30.02,West,260,5.8,6.3,29,0.00,,SCT060,0.00,VWS V14.01,2013-02-17 20:49:00,
2013-02-17 12:54:00,46.9,16.4,29.99,NW,306,4.9,4.9,29,0.00,,SCT060,0.00,VWS V14.01,2013-02-17 20:54:00,
2013-02-17 12:59:00,46.8,16.2,29.99,WNW,292,4.9,4.9,29,0.00,,SCT060,0.00,VWS V14.01,2013-02-17 20:59:00,
2013-02-17 13:04:00,47.1,16.5,29.99,WNW,297,5.4,6.3,29,0.00,,BKN095,0.00,VWS V14.01,2013-02-17 21:04:00,
2013-02-17 13:09:00,47.3,15.9,29.99,NNW,330,3.6,7.6,28,0.00,,BKN095,0.00,VWS V14.01,2013-02-17 21:09:00,
2013-02-17 13:14:00,47.1,15.7,29.99,NW,307,2.7,3.1,28,0.00,,BKN095,0.00,VWS V14.01,2013-02-17 21:14:00,
2013-02-17 13:19:00,46.2,15.7,29.99,West,279,3.6,3.6,29,0.00,,BKN095,0.00,VWS V14.01,2013-02-17 21:19:00,
2013-02-17 13:24:00,46.0,15.6,29.99,NNW,331,2.7,2.7,29,0.00,,BKN095,0.00,VWS V14.01,2013-02-17 21:24:00,
2013-02-17 13:29:00,46.4,15.9,29.99,West,263,5.8,5.8,29,0.00,,BKN095,0.00,VWS V14.01,2013-02-17 21:29:00,
2013-02-17 13:34:00,46.6,16.0,29.99,WSW,242,8.3,10.5,29,0.00,,BKN095,0.00,VWS V14.01,2013-02-17 21:34:00,
2013-02-17 13:39:00,46.2,16.5,29.99,WSW,249,5.8,8.1,30,0.00,,BKN095,0.00,VWS V14.01,2013-02-17 21:39:00,
2013-02-17 13:44:00,46.2,16.5,29.99,WSW,252,7.6,11.0,30,0.00,,BKN095,0.00,VWS V14.01,2013-02-17 21:44:00,
2013-02-17 13:49:00,46.6,16.0,29.99,West,262,10.1,10.1,29,0.00,,BKN095,0.00,VWS V14.01,2013-02-17 21:49:00,
2013-02-17 13:54:00,46.6,16.0,29.99,West,265,10.5,10.5,29,0.00,,BKN095,0.00,VWS V14.01,2013-02-17 21:54:00,
2013-02-17 13:59:00,46.6,16.0,29.99,West,268,9.6,9.6,29,0.00,,BKN095,0.00,VWS V14.01,2013-02-17 21:59:00,
2013-02-17 14:04:00,46.6,16.0,29.99,West,276,3.6,3.6,29,0.00,,BKN085,0.00,VWS V14.01,2013-02-17 22:04:00,
2013-02-17 14:09:00,46.4,15.9,29.99,NW,314,5.4,5.4,29,0.00,,BKN085,0.00,VWS V14.01,2013-02-17 22:09:00,
2013-02-17 14:14:00,45.9,15.4,29.99,NW,317,3.1,7.6,29,0.00,,BKN085,0.00,VWS V14.01,2013-02-17 22:14:00,
2013-02-17 14:19:00,46.2,15.7,29.99,WNW,286,3.1,3.1,29,0.00,,BKN085,0.00,VWS V14.01,2013-02-17 22:19:00,
2013-02-17 14:24:00,46.4,15.9,29.99,WNW,283,5.4,10.1,29,0.00,,BKN085,0.00,VWS V14.01,2013-02-17 22:24:00,
2013-02-17 14:29:00,46.6,15.2,29.99,West,263,3.1,6.3,28,0.00,,BKN085,0.00,VWS V14.01,2013-02-17 22:29:00,
2013-02-17 14:34:00,46.9,15.6,29.99,WNW,295,8.1,10.1,28,0.00,,BKN085,0.00,VWS V14.01,2013-02-17 22:34:00,
2013-02-17 14:39:00,47.3,15.9,29.99,NW,308,3.1,4.0,28,0.00,,BKN085,0.00,VWS V14.01,2013-02-17 22:39:00,
2013-02-17 14:44:00,46.6,15.2,29.99,NW,305,5.4,6.3,28,0.00,,BKN085,0.00,VWS V14.01,2013-02-17 22:44:00,
2013-02-17 14:49:00,46.6,15.2,29.99,WSW,258,9.6,10.5,28,0.00,,BKN085,0.00,VWS V14.01,2013-02-17 22:49:00,
2013-02-17 14:54:00,46.8,15.4,29.99,NW,306,6.3,6.3,28,0.00,,BKN085,0.00,VWS V14.01,2013-02-17 22:54:00,
2013-02-17 14:59:00,46.4,15.1,29.99,West,270,3.6,4.9,28,0.00,,BKN085,0.00,VWS V14.01,2013-02-17 22:59:00,
2013-02-17 15:04:00,45.9,14.6,29.99,NW,307,4.0,5.4,28,0.00,,BKN085,0.00,VWS V14.01,2013-02-17 23:04:00,
2013-02-17 15:09:00,45.3,14.1,29.99,NNW,340,3.6,3.6,28,0.00,,BKN085,0.00,VWS V14.01,2013-02-17 23:09:00,
2013-02-17 15:14:00,45.0,13.8,29.99,NW,317,2.7,6.3,28,0.00,,BKN085,0.00,VWS V14.01,2013-02-17 23:14:00,
2013-02-17 15:19:00,44.4,14.2,29.99,NW,317,3.6,4.0,29,0.00,,BKN085,0.00,VWS V14.01,2013-02-17 23:19:00,
2013-02-17 15:24:00,44.1,13.9,29.99,West,273,2.7,3.6,29,0.00,,BKN085,0.00,VWS V14.01,2013-02-17 23:24:00,
2013-02-17 15:29:00,43.9,13.7,29.99,WSW,253,5.4,5.4,29,0.00,,BKN085,0.00,VWS V14.01,2013-02-17 23:29:00,
2013-02-17 15:34:00,43.3,13.2,29.99,West,280,6.3,8.3,29,0.00,,BKN085,0.00,VWS V14.01,2013-02-17 23:34:00,
2013-02-17 15:42:00,43.2,13.1,29.99,West,275,2.7,2.7,29,0.00,,BKN085,0.00,VWS V14.01,2013-02-17 23:42:00,
2013-02-17 15:47:00,43.3,13.2,29.99,West,271,5.4,6.7,29,0.00,,BKN085,0.00,VWS V14.01,2013-02-17 23:47:00,
2013-02-17 15:52:00,43.7,13.5,30.02,West,261,7.6,8.7,29,0.00,,BKN085,0.00,VWS V14.01,2013-02-17 23:52:00,
2013-02-17 15:57:00,44.1,13.9,30.02,West,280,3.6,3.6,29,0.00,,BKN085,0.00,VWS V14.01,2013-02-17 23:57:00,
2013-02-17 16:02:00,44.2,14.0,30.02,West,268,6.3,6.3,29,0.00,,BKN085,0.00,VWS V14.01,2013-02-18 00:02:00,
2013-02-17 16:07:00,44.2,14.0,30.02,West,267,5.8,6.3,29,0.00,,SCT085,0.00,VWS V14.01,2013-02-18 00:07:00,
2013-02-17 16:12:00,44.4,14.2,30.02,WSW,257,6.3,6.3,29,0.00,,SCT085,0.00,VWS V14.01,2013-02-18 00:12:00,
2013-02-17 16:16:00,44.8,14.5,30.02,WNW,286,2.7,7.6,29,0.00,,SCT085,0.00,VWS V14.01,2013-02-18 00:16:00,
2013-02-17 16:21:00,44.8,14.5,30.02,WSW,256,7.6,7.6,29,0.00,,SCT085,0.00,VWS V14.01,2013-02-18 00:21:00,
2013-02-17 16:26:00,44.6,14.3,30.02,West,272,3.6,5.8,29,0.00,,SCT085,0.00,VWS V14.01,2013-02-18 00:26:00,
2013-02-17 16:31:00,44.2,14.0,30.02,West,265,3.6,4.0,29,0.00,,SCT085,0.00,VWS V14.01,2013-02-18 00:31:00,
2013-02-17 16:36:00,44.1,13.9,30.02,NW,314,2.7,3.1,29,0.00,,SCT085,0.00,VWS V14.01,2013-02-18 00:36:00,
2013-02-17 16:41:00,43.5,13.4,30.02,NW,323,0.0,3.1,29,0.00,,SCT085,0.00,VWS V14.01,2013-02-18 00:41:00,
2013-02-17 16:46:00,43.2,13.1,30.02,NW,312,3.1,4.9,29,0.00,,SCT085,0.00,VWS V14.01,2013-02-18 00:46:00,
2013-02-17 16:51:00,42.8,12.8,30.02,West,279,3.6,3.6,29,0.00,,SCT085,0.00,VWS V14.01,2013-02-18 00:51:00,
2013-02-17 16:56:00,42.4,13.2,30.02,WNW,293,3.6,3.6,30,0.00,,SCT085,0.00,VWS V14.01,2013-02-18 00:56:00,
2013-02-17 17:01:00,42.3,13.1,30.02,WNW,294,3.1,3.1,30,0.00,,BKN200,0.00,VWS V14.01,2013-02-18 01:01:00,
2013-02-17 17:06:00,41.9,12.7,30.02,WNW,293,3.6,3.6,30,0.00,,BKN200,0.00,VWS V14.01,2013-02-18 01:06:00,
2013-02-17 17:11:00,41.5,12.4,30.02,WSW,256,5.4,5.4,30,0.00,,BKN200,0.00,VWS V14.01,2013-02-18 01:11:00,
2013-02-17 17:16:00,41.2,12.1,30.02,WSW,251,4.0,4.9,30,0.00,,BKN200,0.00,VWS V14.01,2013-02-18 01:16:00,
2013-02-17 17:21:00,41.2,12.9,30.02,WSW,254,5.4,6.3,31,0.00,,BKN200,0.00,VWS V14.01,2013-02-18 01:21:00,
2013-02-17 17:26:00,41.0,12.7,30.02,West,277,3.1,4.0,31,0.00,,BKN200,0.00,VWS V14.01,2013-02-18 01:26:00,
2013-02-17 17:31:00,40.8,13.3,30.02,West,275,3.1,3.1,32,0.00,,BKN200,0.00,VWS V14.01,2013-02-18 01:31:00,
2013-02-17 17:36:00,40.5,12.9,30.02,West,274,2.2,5.4,32,0.00,,BKN200,0.00,VWS V14.01,2013-02-18 01:36:00,
2013-02-17 17:41:00,40.3,12.8,30.02,West,277,2.7,2.7,32,0.00,,BKN200,0.00,VWS V14.01,2013-02-18 01:41:00,
2013-02-17 17:46:00,39.9,12.5,30.02,West,270,2.2,5.8,32,0.00,,BKN200,0.00,VWS V14.01,2013-02-18 01:46:00,
2013-02-17 17:51:00,39.7,12.3,30.02,West,268,4.0,4.0,32,0.00,,BKN200,0.00,VWS V14.01,2013-02-18 01:51:00,
2013-02-17 17:56:00,39.7,12.3,30.02,West,272,3.6,3.6,32,0.00,,BKN200,0.00,VWS V14.01,2013-02-18 01:56:00,
2013-02-17 18:01:00,39.7,12.3,30.02,WSW,257,3.6,3.6,32,0.00,,BKN200,0.00,VWS V14.01,2013-02-18 02:01:00,
2013-02-17 18:06:00,39.6,12.1,30.02,WNW,282,0.0,0.0,32,0.00,,BKN200,0.00,VWS V14.01,2013-02-18 02:06:00,
2013-02-17 18:11:00,39.6,12.1,30.02,NW,307,0.0,0.0,32,0.00,,BKN200,0.00,VWS V14.01,2013-02-18 02:11:00,
2013-02-17 18:16:00,39.4,12.0,30.02,West,273,2.2,2.2,32,0.00,,BKN200,0.00,VWS V14.01,2013-02-18 02:16:00,
2013-02-17 18:21:00,39.4,12.0,30.02,West,277,2.7,3.1,32,0.00,,BKN200,0.00,VWS V14.01,2013-02-18 02:21:00,
2013-02-17 18:26:00,39.2,11.1,30.02,West,268,0.0,0.0,31,0.00,,BKN200,0.00,VWS V14.01,2013-02-18 02:26:00,
2013-02-17 18:31:00,39.2,11.1,30.02,West,268,0.0,0.0,31,0.00,,BKN200,0.00,VWS V14.01,2013-02-18 02:31:00,
2013-02-17 18:36:00,39.2,11.1,30.02,West,277,0.0,0.0,31,0.00,,BKN200,0.00,VWS V14.01,2013-02-18 02:36:00,
2013-02-17 18:41:00,39.0,11.7,30.02,West,266,0.0,2.2,32,0.00,,BKN200,0.00,VWS V14.01,2013-02-18 02:41:00,
2013-02-17 18:46:00,38.8,11.5,30.02,West,265,0.0,0.0,32,0.00,,BKN200,0.00,VWS V14.01,2013-02-18 02:46:00,
2013-02-17 18:51:00,38.8,11.5,30.02,West,266,0.0,0.0,32,0.00,,BKN200,0.00,VWS V14.01,2013-02-18 02:51:00,
2013-02-17 18:56:00,38.8,11.5,30.02,West,266,0.0,0.0,32,0.00,,BKN200,0.00,VWS V14.01,2013-02-18 02:56:00,
2013-02-17 19:01:00,39.0,11.7,30.02,West,266,0.0,0.0,32,0.00,,BKN200,0.00,VWS V14.01,2013-02-18 03:01:00,
2013-02-17 19:06:00,38.8,11.5,30.02,West,266,0.0,0.0,32,0.00,,OVC080,0.00,VWS V14.01,2013-02-18 03:06:00,
2013-02-17 19:11:00,39.0,11.7,30.02,WNW,286,0.0,0.0,32,0.00,,OVC080,0.00,VWS V14.01,2013-02-18 03:11:00,
2013-02-17 19:16:00,38.7,11.4,30.02,WNW,286,0.0,0.0,32,0.00,,OVC080,0.00,VWS V14.01,2013-02-18 03:16:00,
2013-02-17 19:21:00,38.5,11.2,30.02,WNW,286,0.0,0.0,32,0.00,,OVC080,0.00,VWS V14.01,2013-02-18 03:21:00,
2013-02-17 19:26:00,38.3,11.7,30.02,WNW,286,0.0,0.0,33,0.00,,OVC080,0.00,VWS V14.01,2013-02-18 03:26:00,
2013-02-17 19:31:00,38.3,11.7,30.02,WNW,286,0.0,0.0,33,0.00,,OVC080,0.00,VWS V14.01,2013-02-18 03:31:00,
2013-02-17 19:36:00,38.3,11.7,30.02,SSW,206,2.7,2.7,33,0.00,,OVC080,0.00,VWS V14.01,2013-02-18 03:36:00,
2013-02-17 19:41:00,37.9,12.1,30.02,SSW,206,0.0,2.2,34,0.00,,OVC080,0.00,VWS V14.01,2013-02-18 03:41:00,
2013-02-17 19:46:00,37.8,11.9,30.02,SSW,206,0.0,0.0,34,0.00,,OVC080,0.00,VWS V14.01,2013-02-18 03:46:00,
2013-02-17 19:51:00,37.6,12.4,30.05,SSW,206,0.0,0.0,35,0.00,,OVC080,0.00,VWS V14.01,2013-02-18 03:51:00,
2013-02-17 19:56:00,37.4,12.9,30.05,SSW,206,0.0,0.0,36,0.00,,OVC080,0.00,VWS V14.01,2013-02-18 03:56:00,
2013-02-17 20:01:00,37.0,13.2,30.05,SSW,206,0.0,0.0,37,0.00,,OVC080,0.00,VWS V14.01,2013-02-18 04:01:00,
2013-02-17 20:06:00,36.9,13.6,30.05,SSW,206,0.0,0.0,38,0.00,,OVC075,0.00,VWS V14.01,2013-02-18 04:06:00,
2013-02-17 20:11:00,36.7,14.1,30.05,SSW,206,0.0,0.0,39,0.00,,OVC075,0.00,VWS V14.01,2013-02-18 04:11:00,
2013-02-17 20:16:00,36.7,14.1,30.05,SSW,206,0.0,0.0,39,0.00,,OVC075,0.00,VWS V14.01,2013-02-18 04:16:00,
2013-02-17 20:21:00,36.7,14.1,30.05,SSW,206,0.0,0.0,39,0.00,,OVC075,0.00,VWS V14.01,2013-02-18 04:21:00,
2013-02-17 20:26:00,36.9,14.2,30.05,SSW,206,0.0,0.0,39,0.00,,OVC075,0.00,VWS V14.01,2013-02-18 04:26:00,
2013-02-17 20:31:00,36.9,14.2,30.05,SSW,206,0.0,0.0,39,0.00,,OVC075,0.00,VWS V14.01,2013-02-18 04:31:00,
2013-02-17 20:36:00,36.9,14.2,30.05,SSW,206,0.0,0.0,39,0.00,,OVC075,0.00,VWS V14.01,2013-02-18 04:36:00,
2013-02-17 20:41:00,36.7,14.1,30.05,SSW,206,0.0,0.0,39,0.00,,OVC075,0.00,VWS V14.01,2013-02-18 04:41:00,
2013-02-17 20:46:00,36.3,13.8,30.05,SSW,206,0.0,0.0,39,0.00,,OVC075,0.00,VWS V14.01,2013-02-18 04:46:00,
2013-02-17 20:51:00,36.1,13.6,30.05,SSW,206,0.0,0.0,39,0.00,,OVC075,0.00,VWS V14.01,2013-02-18 04:51:00,
2013-02-17 20:56:00,36.1,14.2,30.05,WSW,244,2.2,2.2,40,0.00,,OVC075,0.00,VWS V14.01,2013-02-18 04:56:00,
2013-02-17 21:00:00,36.1,14.2,30.05,West,269,2.7,2.7,40,0.00,,OVC075,0.00,VWS V14.01,2013-02-18 05:00:00,
2013-02-17 21:05:00,36.5,13.9,30.05,West,265,0.0,0.0,39,0.00,,OVC075,0.00,VWS V14.01,2013-02-18 05:05:00,
2013-02-17 21:10:00,36.9,14.2,30.05,West,265,0.0,2.7,39,0.00,,OVC075,0.00,VWS V14.01,2013-02-18 05:10:00,
2013-02-17 21:15:00,37.0,14.4,30.05,West,265,0.0,0.0,39,0.00,,OVC075,0.00,VWS V14.01,2013-02-18 05:15:00,
2013-02-17 21:20:00,37.0,14.4,30.05,West,265,0.0,0.0,39,0.00,,OVC075,0.00,VWS V14.01,2013-02-18 05:20:00,
2013-02-17 21:25:00,37.0,14.4,30.05,West,265,0.0,2.2,39,0.00,,OVC075,0.00,VWS V14.01,2013-02-18 05:25:00,
2013-02-17 21:30:00,37.0,14.4,30.05,West,267,2.2,2.7,39,0.00,,OVC075,0.00,VWS V14.01,2013-02-18 05:30:00,
2013-02-17 21:35:00,37.0,14.4,30.05,West,267,0.0,0.0,39,0.00,,OVC075,0.00,VWS V14.01,2013-02-18 05:35:00,
2013-02-17 21:40:00,37.4,14.1,30.05,WNW,283,0.0,0.0,38,0.00,,OVC075,0.00,VWS V14.01,2013-02-18 05:40:00,
2013-02-17 21:45:00,37.6,13.7,30.05,WNW,283,0.0,0.0,37,0.00,,OVC075,0.00,VWS V14.01,2013-02-18 05:45:00,
2013-02-17 21:50:00,37.6,14.3,30.05,WNW,283,0.0,0.0,38,0.00,,OVC075,0.00,VWS V14.01,2013-02-18 05:50:00,
2013-02-17 21:55:00,37.4,14.1,30.05,WNW,283,0.0,0.0,38,0.00,,OVC075,0.00,VWS V14.01,2013-02-18 05:55:00,
2013-02-17 22:00:00,37.4,14.1,30.05,WNW,283,0.0,0.0,38,0.00,,OVC075,0.00,VWS V14.01,2013-02-18 06:00:00,
2013-02-17 22:05:00,37.0,14.4,30.05,WNW,283,0.0,0.0,39,0.00,,OVC075,0.00,VWS V14.01,2013-02-18 06:05:00,
2013-02-17 22:10:00,37.0,14.4,30.05,WNW,283,0.0,0.0,39,0.00,,SCT200,0.00,VWS V14.01,2013-02-18 06:10:00,
2013-02-17 22:15:00,37.0,14.4,30.05,WNW,285,0.0,0.0,39,0.00,,SCT200,0.00,VWS V14.01,2013-02-18 06:15:00,
2013-02-17 22:20:00,37.0,14.4,30.05,WNW,285,0.0,0.0,39,0.00,,SCT200,0.00,VWS V14.01,2013-02-18 06:20:00,
2013-02-17 22:25:00,37.0,14.4,30.05,WNW,285,0.0,0.0,39,0.00,,SCT200,0.00,VWS V14.01,2013-02-18 06:25:00,
2013-02-17 22:30:00,36.9,14.2,30.05,WNW,285,0.0,0.0,39,0.00,,SCT200,0.00,VWS V14.01,2013-02-18 06:30:00,
2013-02-17 22:35:00,36.5,14.5,30.05,SW,225,0.0,0.0,40,0.00,,SCT200,0.00,VWS V14.01,2013-02-18 06:35:00,
2013-02-17 22:40:00,36.3,14.3,30.05,SSW,203,0.0,0.0,40,0.00,,SCT200,0.00,VWS V14.01,2013-02-18 06:40:00,
2013-02-17 22:45:00,36.1,14.2,30.05,SSW,203,0.0,0.0,40,0.00,,SCT200,0.00,VWS V14.01,2013-02-18 06:45:00,
2013-02-17 22:50:00,36.0,14.6,30.05,SSW,203,0.0,0.0,41,0.00,,SCT200,0.00,VWS V14.01,2013-02-18 06:50:00,
2013-02-17 22:55:00,35.8,14.4,30.05,SSW,203,0.0,0.0,41,0.00,,SCT200,0.00,VWS V14.01,2013-02-18 06:55:00,
2013-02-17 23:00:00,35.6,14.2,30.05,SSW,203,0.0,0.0,41,0.00,,SCT200,0.00,VWS V14.01,2013-02-18 07:00:00,
2013-02-17 23:05:00,35.6,14.2,30.05,SSW,203,0.0,0.0,41,0.00,,SCT200,0.00,VWS V14.01,2013-02-18 07:05:00,
2013-02-17 23:10:00,35.4,14.6,30.05,SSW,203,0.0,0.0,42,0.00,,SCT200,0.00,VWS V14.01,2013-02-18 07:10:00,
2013-02-17 23:15:00,35.4,14.6,30.05,SSW,203,0.0,0.0,42,0.00,,SCT200,0.00,VWS V14.01,2013-02-18 07:15:00,
2013-02-17 23:20:00,35.4,14.6,30.05,SSW,203,0.0,0.0,42,0.00,,SCT200,0.00,VWS V14.01,2013-02-18 07:20:00,
2013-02-17 23:25:00,35.1,14.3,30.05,SSW,203,0.0,0.0,42,0.00,,SCT200,0.00,VWS V14.01,2013-02-18 07:25:00,
2013-02-17 23:30:00,35.1,14.3,30.05,SSW,203,0.0,0.0,42,0.00,,SCT200,0.00,VWS V14.01,2013-02-18 07:30:00,
2013-02-17 23:35:00,34.9,14.7,30.05,SSW,203,0.0,0.0,43,0.00,,SCT200,0.00,VWS V14.01,2013-02-18 07:35:00,
2013-02-17 23:40:00,35.1,14.8,30.05,SSW,203,0.0,0.0,43,0.00,,SCT200,0.00,VWS V14.01,2013-02-18 07:40:00,
2013-02-17 23:45:00,35.1,14.8,30.05,SSW,203,0.0,0.0,43,0.00,,SCT200,0.00,VWS V14.01,2013-02-18 07:45:00,
2013-02-17 23:50:00,35.2,14.5,30.05,SSW,203,0.0,0.0,42,0.00,,SCT200,0.00,VWS V14.01,2013-02-18 07:50:00,
2013-02-17 23:55:00,35.4,14.6,30.05,SSW,203,0.0,0.0,42,0.00,,SCT200,0.00,VWS V14.01,2013-02-18 07:55:00,